BEIDOU-3 M20 (44865 NORAD) Tracking and Keplerian Element Data

This shows tracking and keplerian element data for the satellite.

Feedback or suggestion? Click here.




ElementValue
Catalog44865
NameBEIDOU-3 M20
Epoch Orbit379
Epoch Day189.86452183
Epoch Year2020
RAAN135.5095
Inclination55.084
Eccentricity0.0016266
Argument of Perigee282.1145
Mean Anonmoly3.9347
Mean Motion1.86231934
Decay Rate-4E-08
L11 44865U 19090B 20189.86452183 -.00000004 00000-0 10000-3 0 9992
L22 44865 55.0840 135.5095 0016266 282.1145 3.9347 1.86231934 3795

Live tracking and technical data element details for BEIDOU-3 M20 (NORAD 44865). BEIDOU-3 M20 can be tracked NOW for your location showing map with azimuth and elevation plus other details from your city location.

Track the satellite on the map from your city or location and see movement details for azimuth, elevation, latitude, longitude, range, height, and movement on the map or in text.







IsCatalogInMostPopularTable: catalog: 44865, numindb: 68
Update: records affected: 1



GetName: 44865 BEIDOU-3 M20

Hit Count: updated at: Fri, 10 Jul 2020 04:04:31 GMT